Wind_Speed
21 22 22 22 23 23 23 22 22 22 23 24 24 25 25 26 26 27 27 27 27 27 27 27 27 28 27 26 26 26 25 25 25 26 26 26 25 25 25 25 26 27 27 26 26 24 24 22 20 17 13 16 22 27 31 34 37 41 43 43 41 41 42
22 22 22 22 23 23 22 22 22 22 23 23 23 24 24 24 25 25 26 26 26 26 26 26 26 27 26 26 25 25 24 24 24 24 25 25 25 25 24 24 25 26 27 27 26 25 24 23 21 18 15 13 16 19 21 24 29 36 40 41 41 40 41
22 21 21 21 21 22 22 22 22 22 23 23 23 23 23 23 23 23 24 24 25 25 25 25 26 25 25 24 24 23 23 23 23 23 24 25 24 24 23 23 24 25 25 26 26 25 25 25 23 22 21 21 21 20 18 18 20 26 32 37 39 41 42
21 20 20 20 20 20 20 21 21 22 22 23 22 22 22 22 22 22 22 23 23 24 24 24 24 24 23 22 21 21 21 21 21 22 23 24 24 23 23 23 23 23 24 24 24 24 25 25 25 25 25 24 23 22 21 19 19 20 24 30 35 38 42
18 18 18 19 19 19 19 19 20 20 21 22 21 21 21 21 21 21 21 22 22 22 22 22 22 22 21 20 20 20 20 19 19 20 21 22 22 22 23 23 22 22 23 23 23 23 23 24 24 25 24 23 21 21 21 20 20 20 21 24 28 32 38
15 16 17 18 19 19 19 19 19 19 20 20 20 20 20 20 20 20 21 21 21 21 21 21 20 20 19 18 18 18 18 18 17 18 19 20 21 21 21 22 22 21 21 22 22 22 22 22 22 22 21 20 19 20 20 20 20 20 20 21 22 26 32
15 16 17 18 19 19 19 19 19 19 19 20 19 19 19 18 18 18 19 19 20 20 20 20 19 19 18 18 18 17 17 16 16 16 17 17 18 19 20 20 21 21 20 20 21 20 20 20 20 20 19 18 18 18 18 19 20 20 19 19 20 21 25
15 16 18 19 19 19 19 19 19 19 20 20 20 19 19 19 18 18 18 18 19 19 19 19 19 19 18 18 18 17 17 16 15 15 16 16 16 17 18 18 18 18 18 18 19 18 18 18 18 18 17 16 17 17 17 17 18 19 19 19 19 19 20
16 16 18 19 18 19 19 19 19 19 19 19 19 19 19 19 18 18 18 18 18 18 18 18 17 17 18 17 17 17 17 16 16 15 15 16 16 16 17 17 16 16 15 15 16 16 16 16 16 16 15 15 15 16 15 15 16 17 18 18 19 18 18
16 17 19 19 19 19 19 19 19 19 18 18 18 18 17 18 18 18 18 18 19 19 18 17 17 16 16 16 16 16 16 16 16 15 14 15 16 16 16 17 17 16 15 14 14 14 15 15 15 15 14 13 14 15 15 15 15 16 16 17 17 17 17
18 18 20 21 21 21 21 21 21 20 19 18 17 17 16 16 17 17 18 19 19 19 19 19 18 17 16 16 16 15 15 15 15 15 14 14 15 16 17 17 17 17 17 16 15 15 14 14 14 14 14 13 13 14 15 15 15 15 15 16 16 15 15
20 20 21 22 23 23 23 22 22 21 19 18 17 17 17 16 17 17 18 19 19 20 20 19 19 18 18 18 17 17 17 16 16 15 15 15 15 16 17 17 17 18 18 18 18 18 17 16 15 15 15 15 14 14 15 16 17 16 16 17 17 17 16
22 22 22 24 24 24 23 22 22 22 20 19 18 17 17 17 17 17 17 18 19 19 20 20 19 19 19 19 19 19 19 19 18 18 18 18 17 17 18 18 18 18 19 19 19 20 20 19 18 17 17 17 17 16 16 17 18 19 19 19 19 19 19
25 23 24 25 25 24 23 23 23 23 22 21 20 19 18 19 19 19 18 18 19 19 19 19 19 19 19 19 19 19 19 19 19 19 18 18 19 19 20 20 20 20 20 20 20 21 21 21 21 21 20 20 19 19 19 19 19 20 21 21 22 22 22
28 25 25 27 27 25 24 25 25 24 22 22 21 21 20 21 21 21 21 20 20 21 21 21 21 21 21 21 21 20 20 20 20 20 20 19 19 20 20 21 22 23 23 23 23 23 24 24 24 23 23 23 23 22 22 22 22 22 22 23 23 24 24
31 29 28 29 30 28 26 27 27 25 23 23 23 23 22 23 23 23 23 23 22 23 23 24 24 24 24 24 24 24 24 23 23 23 23 22 22 22 22 22 22 23 24 25 25 26 26 26 27 27 27 27 27 26 25 25 25 25 25 25 25 26 26
35 33 32 33 32 30 28 28 27 26 27 27 26 25 24 24 23 24 24 25 25 25 25 25 25 25 24 23 24 24 25 25 26 26 25 25 25 25 24 24 24 24 25 25 26 27 27 28 28 29 30 30 30 30 30 29 29 28 28 28 29 28 28
39 37 35 35 34 32 30 29 29 30 30 30 30 29 26 25 24 25 26 27 27 28 27 26 25 26 25 25 24 24 24 25 26 26 27 27 27 27 27 27 26 26 26 26 27 27 28 29 29 30 30 31 32 32 32 32 32 32 31 31 31 32 31
43 42 39 37 35 33 32 32 32 32 32 32 33 33 30 27 26 26 27 28 27 26 27 27 26 26 26 26 26 26 25 26 27 27 28 29 29 30 30 30 29 29 29 29 28 28 28 29 30 31 31 31 31 32 32 33 34 34 34 33 33 34 34
42 43 43 41 39 36 36 37 36 35 35 35 35 37 36 32 30 30 30 30 28 25 25 26 27 27 28 27 28 28 28 28 29 29 30 31 32 33 33 33 33 32 32 33 32 31 31 31 31 31 32 32 32 32 32 33 33 34 34 34 34 34 35
40 38 39 39 39 38 38 39 39 37 38 37 35 34 33 31 30 29 28 28 30 30 29 29 29 28 28 28 30 30 30 31 31 31 32 33 34 34 35 35 35 34 33 33 34 34 33 33 33 33 33 33 34 34 34 34 34 34 35 35 35 35 35
44 41 39 39 39 40 39 39 39 38 38 39 38 38 38 37 34 33 33 31 30 31 32 33 32 31 28 29 31 32 32 32 32 32 33 34 35 36 36 37 37 36 35 34 34 34 34 34 34 34 34 35 35 36 36 36 36 36 36 36 36 36 36
48 46 45 45 45 45 44 44 43 42 41 40 41 42 44 42 38 38 40 39 33 31 32 33 34 34 31 29 32 34 34 34 34 35 36 37 37 38 39 39 38 38 37 36 36 36 35 35 35 35 35 36 37 37 37 38 38 39 39 38 38 38 38
51 50 49 48 48 49 49 48 48 49 48 46 44 44 45 45 42 39 40 41 39 37 38 38 38 38 36 32 32 34 35 36 36 38 39 40 40 39 40 41 41 40 39 38 38 38 38 38 38 38 38 38 39 39 39 39 39 40 41 41 41 41 41
54 54 52 51 50 50 50 49 50 50 51 50 49 48 48 49 49 48 46 46 45 43 43 43 43 43 42 40 38 37 37 38 38 40 41 42 42 42 42 44 44 44 43 42 42 43 43 43 43 42 42 42 42 42 43 43 42 42 42 42 42 43 44
56 55 54 53 52 51 51 50 50 51 52 52 52 51 50 49 50 52 53 52 51 50 50 51 50 49 49 48 45 43 43 43 43 43 43 44 45 46 47 48 48 47 48 48 48 47 47 47 47 46 45 45 45 45 45 46 46 46 45 44 44 44 45
55 55 55 54 53 54 53 52 51 51 52 53 54 54 53 52 52 53 55 55 55 54 55 55 54 53 53 52 51 50 49 48 48 47 46 47 48 50 51 52 52 52 52 52 52 52 52 52 51 50 49 48 48 47 47 47 48 48 48 48 47 47 47
53 54 54 54 54 55 55 54 53 53 54 54 55 55 56 56 55 55 57 57 58 57 55 54 52 51 52 52 52 52 52 52 51 50 49 50 51 52 53 54 55 55 56 56 55 55 55 55 54 53 53 52 51 50 49 50 50 50 49 49 49 49 49
51 52 53 54 55 55 56 56 56 57 57 57 57 57 57 58 58 58 59 60 61 59 55 53 50 49 49 50 51 52 52 52 52 51 51 51 51 52 53 54 55 55 55 55 55 55 56 56 55 55 55 54 53 52 51 51 51 51 51 50 50 51 51
51 52 52 53 54 54 55 56 57 57 58 58 58 58 58 58 59 59 59 61 62 60 57 54 50 47 47 48 50 50 50 50 50 50 50 50 50 51 52 53 53 53 53 53 53 53 54 54 54 54 54 54 53 52 52 52 53 53 52 52 52 52 52
51 52 52 53 53 54 54 55 55 56 56 57 57 57 57 57 57 58 59 60 61 59 57 54 50 47 47 48 48 48 47 47 47 47 48 49 49 49 50 51 51 51 51 51 51 51 52 52 52 53 53 53 53 53 53 53 53 54 54 54 54 54 54
52 52 53 53 54 54 54 55 55 55 56 56 56 56 56 56 56 57 57 57 56 55 53 52 51 49 48 47 47 47 46 45 46 47 48 48 48 48 49 50 50 50 50 50 50 51 51 51 51 51 52 52 53 53 53 53 53 53 54 54 54 54 55
53 53 53 54 54 55 55 55 55 55 55 56 56 56 56 56 56 55 54 53 52 52 51 51 51 50 49 48 47 46 46 46 47 48 48 48 48 49 49 50 49 49 50 50 50 51 51 51 51 51 52 52 52 52 52 52 52 52 52 52 53 53 53
53 53 54 54 54 54 54 54 55 55 55 55 55 55 55 56 55 54 53 52 51 50 50 50 50 50 49 48 48 47 48 48 48 48 48 49 49 49 50 50 49 49 49 50 50 50 50 50 51 51 51 51 51 51 51 51 51 51 52 52 52 52 53
52 52 53 54 54 54 53 53 54 54 54 54 54 54 54 54 53 53 52 51 50 50 50 50 50 49 49 48 48 49 49 49 48 48 48 49 49 49 49 49 49 49 49 50 50 50 50 50 50 50 50 50 50 51 51 51 51 51 51 52 52 53 53
51 51 51 52 52 52 52 52 52 53 53 54 53 53 53 52 51 50 50 49 49 49 49 49 49 49 49 49 49 49 49 49 49 48 47 47 48 48 48 48 48 48 49 49 49 49 49 49 48 49 49 50 50 50 50 50 50 50 51 52 53 54 55
49 49 50 50 50 50 50 50 51 51 52 53 52 52 52 51 49 49 49 48 48 48 48 48 49 49 49 49 49 48 48 48 47 46 45 45 45 45 45 46 46 46 47 47 47 47 47 47 48 48 49 50 50 50 50 50 51 52 54 56 57 58 59
Wind_Direction
290 287 285 282 280 279 279 279 279 279 278 277 277 275 274 273 272 272 271 271 271 271 271 271 271 273 274 275 276 276 276 277 277 277 276 274 270 268 268 267 267 268 271 271 271 274 277 276 275 273 254 238 242 243 244 245 244 242 242 245 242 239 242
291 289 286 282 279 278 278 277 277 276 276 276 275 274 273 272 271 271 271 271 271 270 270 270 269 271 272 274 275 275 276 277 276 276 275 274 272 270 268 266 266 267 268 270 270 272 274 274 275 272 259 263 272 262 252 249 246 245 246 246 243 239 240
291 288 285 282 281 280 278 277 277 276 276 275 274 274 273 272 272 271 271 271 271 270 270 270 270 271 272 273 275 276 277 276 275 275 275 274 274 271 269 266 265 266 267 268 268 268 271 272 273 271 267 274 283 278 270 263 255 251 249 248 247 244 243
291 287 285 283 281 280 278 277 276 276 276 275 275 274 273 272 272 271 272 271 272 272 271 271 271 273 274 275 277 278 279 278 277 276 275 275 274 272 270 267 266 266 266 267 267 266 267 268 268 268 269 272 276 276 275 272 267 262 257 253 251 250 249
290 289 287 283 280 278 275 274 273 273 274 274 273 273 273 272 271 271 272 272 272 273 273 273 274 275 277 278 279 280 280 280 278 276 275 275 275 273 271 270 268 266 266 266 266 265 264 265 266 266 267 269 269 268 269 271 270 268 267 264 258 252 252
288 291 289 283 278 275 273 271 271 270 270 270 270 271 272 272 272 272 273 273 273 274 274 275 276 278 279 279 279 280 280 280 278 276 276 275 276 275 273 271 271 269 267 267 267 266 264 264 265 266 267 266 264 261 262 265 267 268 269 272 267 256 252
281 288 286 282 278 274 272 270 270 270 269 269 268 269 270 271 273 274 274 275 275 275 276 276 278 279 281 280 280 280 279 278 277 275 275 275 275 276 276 274 273 272 270 269 269 269 267 265 265 266 266 264 262 260 258 260 263 266 268 271 272 264 255
274 283 283 280 277 274 273 272 271 270 269 269 268 268 269 270 271 273 273 274 274 274 275 276 278 280 283 284 283 282 281 279 278 274 273 274 274 274 276 277 276 277 275 272 271 270 269 267 266 266 265 263 262 262 260 258 260 263 266 268 270 269 262
269 276 279 278 276 274 274 273 272 271 270 270 270 269 270 270 271 272 272 273 272 272 272 273 276 279 282 285 286 286 286 284 283 280 276 275 276 275 275 276 276 277 278 276 274 273 271 269 268 268 266 263 262 262 261 259 259 260 264 267 269 270 269
266 269 271 271 271 271 272 272 271 271 271 271 271 271 272 272 273 274 274 274 273 273 272 271 272 274 278 282 285 288 288 289 288 287 283 280 279 279 277 277 277 276 275 274 273 273 272 271 271 270 268 263 260 261 261 259 258 258 261 265 268 270 270
263 265 266 267 268 269 271 271 270 269 268 269 270 271 272 274 275 276 276 276 275 274 273 272 271 271 273 275 279 281 283 285 286 286 286 283 281 281 280 279 278 278 277 274 272 270 269 267 267 269 269 266 260 259 261 260 258 257 257 260 263 264 265
262 263 264 266 267 269 270 269 268 267 266 267 270 273 274 275 275 275 276 276 275 273 272 272 272 271 272 273 275 276 278 279 279 279 280 280 279 278 279 279 278 278 279 278 276 273 271 268 265 264 264 265 263 259 259 260 261 260 257 258 260 260 260
261 261 262 262 262 265 265 264 265 266 267 268 269 272 276 278 278 277 277 276 275 274 273 272 272 272 273 273 274 275 277 278 278 278 278 278 278 277 277 276 276 276 277 277 278 276 275 273 269 266 263 262 263 262 260 260 262 263 262 261 261 261 260
258 259 261 260 259 263 264 262 262 262 264 266 266 267 272 277 279 279 278 276 275 274 273 273 272 273 273 272 272 272 273 275 276 276 277 278 279 279 279 278 277 275 274 274 275 275 275 274 272 271 268 265 263 262 262 262 263 264 264 264 264 264 263
256 258 258 257 258 261 262 261 260 259 259 259 260 262 265 270 273 275 275 275 275 274 273 272 271 271 271 271 271 271 272 274 276 277 278 278 279 279 278 279 279 278 277 275 274 273 273 273 272 271 270 269 266 264 263 262 262 263 264 264 265 266 266
253 253 252 253 256 259 260 260 260 259 258 256 254 256 258 260 262 266 268 269 270 271 272 272 272 270 270 270 271 273 275 278 281 282 282 281 281 280 279 278 278 278 278 277 277 276 274 273 272 271 270 269 269 267 265 263 262 262 263 264 264 263 265
254 253 251 252 257 260 260 261 261 260 260 258 256 255 257 258 258 261 264 265 266 266 266 268 271 272 272 272 273 275 276 279 282 284 285 285 284 284 283 282 280 279 278 277 277 277 276 275 274 273 272 271 270 269 267 266 264 262 262 264 265 264 263
259 257 255 256 259 260 259 261 262 263 263 262 260 259 258 258 258 260 263 265 266 265 263 263 266 269 272 273 273 274 274 276 278 280 283 285 286 286 286 285 284 283 281 279 278 277 276 276 275 274 274 273 272 272 271 270 268 266 264 263 265 267 266
262 258 257 258 258 258 260 262 264 266 268 267 264 260 259 258 259 261 262 262 262 262 262 263 264 266 270 271 271 271 270 271 273 275 278 281 283 284 285 285 285 284 284 283 281 280 278 276 275 275 274 274 273 273 273 273 272 272 271 268 267 267 268
265 259 258 260 258 257 261 264 264 264 268 271 268 261 258 259 262 264 261 256 255 255 258 260 263 266 267 268 269 270 271 272 272 274 276 278 280 281 282 283 284 285 286 286 285 284 282 280 277 276 275 274 274 274 274 274 273 273 274 273 273 271 271
266 261 259 261 258 257 261 265 266 262 262 268 269 261 257 259 261 263 262 257 255 255 256 258 262 265 266 266 269 270 271 272 273 274 276 277 279 280 281 282 282 283 284 286 286 286 285 283 282 280 278 276 275 275 274 274 274 274 273 273 274 273 273
266 263 262 261 260 262 264 267 267 263 260 262 262 260 261 264 266 267 266 264 262 259 258 260 263 264 261 261 266 269 269 271 273 274 275 276 277 279 282 283 282 281 281 282 283 284 284 284 283 282 281 280 278 277 276 275 275 275 275 274 273 273 272
266 265 263 262 262 264 266 265 265 264 263 261 260 259 262 265 267 269 268 264 261 261 262 263 266 267 262 258 261 265 268 270 273 274 275 276 277 278 280 280 280 280 281 282 283 283 283 284 284 283 282 281 281 279 278 277 277 276 276 275 274 273 272
267 267 266 265 264 264 265 265 265 264 265 265 265 266 266 265 265 267 266 261 257 260 264 266 267 268 265 263 264 266 268 270 272 274 276 277 277 278 278 278 279 280 280 281 282 284 284 285 286 285 284 283 282 282 281 280 279 278 277 276 275 273 272
266 267 268 268 268 267 267 266 266 267 268 269 270 271 271 271 270 268 267 265 262 262 265 268 270 270 270 271 272 271 271 273 274 275 275 276 277 279 278 278 279 279 280 280 281 283 284 286 287 287 287 285 284 284 283 282 282 280 279 278 277 275 274
263 264 266 267 268 269 268 267 266 266 267 268 269 270 270 271 272 271 269 268 268 267 268 270 272 273 275 276 276 276 275 275 276 276 276 276 278 279 279 279 280 280 280 281 281 283 284 284 285 287 287 287 286 285 285 285 284 283 281 279 278 276 275
260 261 262 263 265 266 268 269 269 267 267 266 267 268 269 269 270 271 270 269 269 269 270 270 271 273 275 277 279 280 279 278 278 278 278 278 278 279 279 280 281 281 281 281 282 283 283 283 283 284 285 285 285 284 284 284 284 283 282 281 280 278 277
259 260 260 261 262 263 264 266 267 268 267 267 267 267 267 268 270 271 272 272 272 272 274 275 275 275 276 278 279 280 280 280 280 280 279 279 279 279 280 280 280 280 281 281 282 282 281 282 282 282 283 283 283 283 282 282 281 281 280 279 279 278 277
260 260 260 260 261 261 262 262 263 264 265 266 267 267 267 268 268 270 271 273 274 275 277 278 277 277 278 278 279 279 279 280 280 280 279 279 279 279 279 279 279 278 278 279 279 279 279 280 281 281 281 282 282 281 280 280 279 279 278 277 276 275 275
260 260 260 260 261 261 261 262 263 264 265 266 266 267 268 269 269 269 270 271 273 275 277 277 278 278 278 277 277 277 278 279 279 279 279 279 279 279 279 278 278 278 277 277 277 277 277 278 279 279 280 280 280 279 278 278 277 277 277 276 275 274 273
260 261 261 261 262 262 262 262 263 263 264 265 265 266 267 268 269 269 269 271 272 274 276 277 278 277 276 275 275 276 277 277 276 277 278 278 279 279 278 278 278 278 278 278 277 276 276 276 277 277 278 278 277 277 276 276 275 275 275 274 273 273 272
260 261 262 263 263 264 264 264 264 265 265 265 266 266 267 267 268 268 269 271 272 273 275 276 276 276 275 274 275 276 276 276 276 277 278 279 280 279 278 278 278 278 278 278 278 277 277 277 277 277 277 276 276 276 276 275 275 274 274 273 273 272 271
260 260 261 262 263 264 265 266 266 266 266 266 266 266 267 267 268 268 269 270 271 272 273 273 274 274 274 275 276 276 276 276 277 278 279 279 279 279 278 278 279 279 278 278 277 277 277 277 277 277 277 277 277 277 277 277 276 276 276 275 274 273 272
261 261 261 262 262 263 264 266 266 266 267 267 266 266 267 267 268 269 269 270 270 271 271 271 272 272 273 274 275 275 275 276 277 278 278 278 279 279 279 279 279 278 278 277 277 277 277 277 277 277 277 277 277 277 277 278 278 278 277 277 276 275 274
262 262 262 263 263 263 264 265 266 266 267 267 267 267 267 267 268 268 268 268 269 269 270 270 271 272 273 273 273 274 275 276 276 277 277 278 278 278 278 278 278 278 277 277 277 277 277 277 277 277 277 277 277 278 278 278 278 278 277 277 276 276 275
263 263 264 264 265 264 265 265 266 267 267 267 268 268 268 268 268 268 267 267 267 267 269 270 271 271 271 271 272 273 275 275 276 276 276 276 276 277 277 278 277 277 277 277 277 277 277 277 278 278 278 278 279 279 279 279 279 280 280 279 279 277 276
263 263 264 265 265 266 266 266 267 267 268 268 268 268 268 269 269 268 267 266 266 267 267 267 268 268 269 270 271 272 273 273 274 274 274 274 274 275 277 277 277 276 277 277 277 277 278 278 279 279 280 280 280 280 280 281 281 282 283 282 281 279 277
Height
5753 5753 5754 5754 5755 5755 5756 5756 5757 5757 5757 5758 5758 5758 5759 5759 5759 5759 5759 5760 5760 5760 5760 5761 5761 5760 5760 5761 5761 5761 5762 5762 5763 5762 5761 5762 5763 5764 5765 5765 5765 5765 5766 5767 5768 5768 5768 5768 5769 5769 5769 5769 5771 5772 5772 5774 5775 5776 5777 5777 5780 5782 5783
5750 5751 5751 5752 5752 5752 5753 5753 5754 5755 5755 5755 5756 5756 5756 5756 5756 5756 5756 5756 5757 5757 5757 5757 5758 5758 5758 5758 5758 5758 5759 5760 5760 5760 5759 5759 5760 5761 5762 5762 5762 5763 5764 5764 5765 5766 5766 5766 5767 5768 5768 5768 5769 5770 5770 5771 5772 5773 5774 5774 5775 5777 5778
5748 5749 5749 5749 5749 5750 5750 5751 5751 5751 5752 5752 5753 5753 5753 5753 5754 5753 5754 5753 5753 5754 5754 5754 5754 5754 5755 5755 5755 5755 5756 5757 5757 5757 5757 5757 5757 5757 5758 5759 5759 5760 5761 5761 5762 5763 5763 5764 5765 5766 5766 5766 5767 5767 5768 5768 5769 5770 5771 5771 5772 5773 5774
5746 5746 5747 5747 5747 5747 5748 5748 5748 5749 5749 5750 5750 5750 5751 5751 5751 5751 5751 5751 5751 5751 5751 5751 5751 5751 5752 5752 5752 5753 5753 5753 5754 5754 5755 5754 5754 5755 5755 5756 5756 5757 5758 5758 5758 5759 5760 5761 5762 5762 5763 5764 5765 5764 5764 5765 5766 5767 5767 5767 5768 5769 5770
5744 5744 5745 5745 5745 5745 5745 5745 5746 5746 5747 5747 5748 5748 5748 5748 5748 5748 5748 5748 5748 5748 5748 5748 5748 5749 5749 5749 5750 5750 5750 5751 5751 5752 5752 5752 5752 5752 5752 5753 5753 5754 5755 5755 5755 5756 5757 5758 5758 5759 5760 5761 5761 5761 5761 5762 5763 5763 5763 5764 5764 5765 5766
5742 5742 5742 5743 5743 5743 5743 5743 5743 5744 5744 5745 5745 5746 5746 5746 5746 5746 5746 5746 5746 5746 5746 5746 5746 5746 5746 5747 5747 5748 5748 5748 5749 5749 5749 5749 5749 5750 5750 5750 5751 5751 5752 5752 5752 5753 5754 5754 5755 5755 5756 5758 5758 5758 5759 5759 5760 5760 5760 5760 5760 5761 5762
5739 5740 5740 5740 5740 5740 5741 5741 5741 5742 5742 5743 5743 5744 5744 5744 5744 5744 5745 5745 5744 5744 5744 5744 5744 5744 5744 5745 5745 5745 5746 5746 5747 5747 5747 5747 5747 5747 5747 5748 5748 5748 5749 5749 5750 5750 5751 5752 5752 5753 5754 5755 5755 5755 5756 5757 5757 5757 5757 5757 5757 5758 5758
5737 5738 5738 5738 5738 5738 5738 5738 5739 5739 5740 5740 5741 5741 5742 5742 5743 5743 5743 5743 5743 5743 5742 5742 5742 5742 5742 5743 5743 5743 5744 5744 5744 5745 5745 5745 5745 5745 5745 5745 5746 5746 5746 5747 5747 5748 5748 5749 5750 5751 5751 5752 5752 5753 5753 5754 5754 5754 5755 5755 5755 5755 5756
5734 5735 5736 5736 5736 5736 5736 5736 5736 5737 5737 5738 5739 5739 5740 5740 5741 5741 5741 5741 5741 5741 5741 5741 5741 5741 5741 5741 5741 5741 5742 5742 5742 5743 5743 5743 5743 5744 5744 5744 5744 5744 5744 5744 5745 5745 5746 5747 5747 5748 5749 5749 5750 5750 5750 5751 5752 5752 5752 5752 5752 5753 5754
5732 5733 5734 5734 5734 5734 5734 5734 5734 5734 5735 5735 5736 5737 5737 5738 5738 5739 5739 5739 5739 5739 5739 5739 5739 5739 5739 5740 5740 5740 5740 5740 5740 5741 5741 5741 5742 5742 5742 5742 5742 5742 5742 5743 5743 5743 5744 5744 5745 5746 5746 5747 5747 5748 5748 5748 5749 5750 5750 5750 5751 5751 5752
5729 5730 5731 5733 5733 5732 5732 5732 5732 5732 5733 5733 5734 5734 5735 5736 5736 5736 5737 5737 5737 5737 5737 5738 5738 5738 5738 5738 5739 5739 5739 5739 5739 5739 5739 5740 5740 5740 5740 5740 5741 5741 5741 5741 5741 5741 5742 5742 5743 5743 5744 5744 5745 5745 5746 5746 5746 5747 5748 5748 5748 5749 5750
5726 5727 5729 5731 5731 5731 5731 5730 5730 5730 5731 5731 5731 5732 5733 5733 5734 5734 5734 5734 5735 5735 5735 5735 5736 5736 5737 5737 5737 5737 5738 5738 5738 5738 5738 5738 5738 5738 5739 5739 5739 5739 5739 5739 5740 5740 5740 5740 5741 5741 5742 5742 5743 5743 5744 5744 5744 5744 5745 5745 5746 5747 5747
5723 5724 5726 5727 5728 5728 5728 5728 5728 5729 5729 5729 5729 5730 5730 5730 5731 5731 5732 5732 5732 5733 5733 5733 5734 5734 5734 5735 5735 5735 5735 5736 5736 5736 5736 5737 5737 5737 5737 5737 5737 5737 5737 5737 5737 5738 5738 5738 5739 5739 5739 5740 5740 5741 5741 5741 5741 5742 5742 5743 5743 5743 5744
5719 5721 5723 5723 5724 5725 5726 5726 5726 5726 5727 5727 5727 5727 5728 5728 5728 5729 5729 5730 5730 5731 5731 5731 5731 5732 5732 5732 5732 5733 5733 5733 5734 5734 5734 5735 5735 5735 5735 5735 5735 5735 5735 5735 5736 5736 5736 5736 5736 5737 5737 5738 5738 5738 5739 5739 5739 5739 5739 5740 5740 5740 5741
5716 5718 5719 5719 5720 5722 5723 5723 5723 5723 5724 5725 5725 5725 5726 5726 5726 5726 5727 5727 5728 5728 5729 5729 5729 5729 5729 5729 5730 5730 5730 5731 5731 5731 5732 5733 5733 5733 5733 5733 5733 5732 5733 5733 5733 5734 5734 5734 5734 5734 5734 5735 5735 5736 5736 5737 5737 5737 5736 5737 5737 5737 5738
5712 5713 5715 5715 5716 5718 5719 5719 5720 5721 5721 5721 5722 5722 5723 5723 5724 5724 5724 5725 5725 5725 5725 5726 5726 5726 5726 5727 5727 5727 5727 5728 5728 5729 5729 5730 5730 5730 5730 5731 5731 5730 5730 5730 5730 5730 5731 5731 5731 5731 5732 5732 5732 5733 5733 5733 5734 5734 5734 5734 5734 5734 5734
5708 5709 5710 5711 5712 5714 5715 5716 5716 5718 5718 5719 5719 5720 5720 5720 5721 5721 5721 5722 5722 5722 5722 5723 5723 5723 5724 5724 5724 5725 5725 5725 5725 5726 5726 5726 5727 5727 5727 5727 5728 5728 5728 5728 5727 5727 5727 5727 5727 5728 5728 5728 5728 5729 5729 5729 5730 5730 5731 5731 5731 5731 5731
5706 5707 5707 5707 5708 5710 5711 5712 5712 5713 5714 5716 5716 5717 5718 5718 5718 5718 5719 5719 5719 5719 5719 5720 5720 5720 5720 5721 5721 5721 5722 5722 5722 5722 5723 5723 5723 5724 5724 5724 5724 5724 5724 5724 5724 5724 5724 5724 5724 5724 5724 5724 5724 5724 5725 5725 5725 5725 5726 5727 5727 5726 5727
5703 5704 5704 5704 5705 5706 5707 5708 5709 5709 5710 5711 5712 5713 5714 5714 5715 5715 5715 5715 5715 5716 5716 5716 5717 5717 5717 5717 5717 5717 5718 5718 5719 5719 5719 5719 5719 5720 5720 5720 5721 5721 5721 5721 5721 5721 5721 5721 5721 5720 5720 5720 5720 5720 5720 5720 5720 5721 5721 5721 5722 5722 5722
5698 5699 5700 5701 5702 5702 5703 5703 5704 5705 5706 5706 5707 5708 5709 5710 5710 5710 5710 5711 5711 5712 5712 5713 5713 5713 5713 5714 5714 5713 5713 5714 5715 5715 5716 5716 5716 5716 5716 5716 5716 5717 5717 5716 5716 5717 5717 5717 5717 5717 5717 5717 5716 5716 5716 5716 5716 5716 5716 5717 5717 5717 5717
5694 5695 5696 5697 5697 5697 5698 5698 5699 5700 5701 5701 5702 5704 5705 5705 5705 5705 5706 5707 5708 5708 5708 5709 5709 5709 5710 5710 5710 5709 5709 5709 5710 5711 5712 5712 5712 5712 5712 5712 5712 5712 5712 5712 5712 5712 5712 5712 5713 5713 5713 5712 5712 5712 5712 5712 5712 5712 5712 5712 5712 5712 5712
5690 5691 5692 5692 5692 5693 5694 5694 5694 5695 5696 5697 5698 5699 5699 5700 5700 5701 5702 5703 5704 5704 5704 5705 5705 5705 5706 5706 5705 5705 5705 5705 5706 5706 5707 5707 5707 5708 5708 5708 5708 5708 5708 5708 5707 5707 5708 5708 5708 5708 5708 5708 5708 5708 5707 5707 5707 5707 5707 5707 5708 5708 5708
5685 5686 5687 5687 5688 5688 5689 5689 5690 5690 5691 5692 5693 5693 5693 5693 5694 5696 5696 5697 5699 5699 5698 5699 5699 5699 5701 5702 5701 5700 5701 5701 5701 5702 5702 5703 5703 5703 5703 5703 5704 5704 5703 5703 5703 5703 5703 5703 5703 5703 5703 5703 5702 5702 5703 5703 5702 5702 5702 5703 5703 5703 5703
5678 5679 5680 5681 5682 5682 5683 5684 5684 5684 5685 5686 5687 5687 5687 5687 5688 5690 5691 5691 5693 5694 5693 5694 5693 5693 5695 5696 5696 5696 5696 5696 5696 5697 5697 5698 5698 5698 5698 5698 5699 5699 5699 5699 5698 5698 5698 5698 5697 5698 5698 5698 5697 5697 5697 5697 5697 5697 5697 5697 5697 5697 5697
5672 5672 5673 5674 5674 5675 5677 5677 5678 5678 5678 5679 5680 5681 5681 5681 5682 5684 5685 5685 5687 5688 5689 5689 5688 5688 5688 5690 5691 5691 5691 5691 5692 5692 5692 5692 5692 5692 5692 5692 5693 5694 5694 5694 5693 5693 5693 5693 5692 5692 5692 5692 5691 5691 5691 5691 5691 5691 5691 5691 5691 5691 5691
5666 5667 5668 5668 5668 5668 5670 5671 5672 5672 5673 5673 5674 5675 5676 5675 5675 5675 5678 5679 5680 5682 5683 5683 5683 5683 5683 5683 5684 5685 5685 5686 5686 5687 5686 5686 5686 5685 5685 5686 5686 5687 5687 5687 5688 5688 5687 5687 5687 5686 5686 5685 5685 5685 5684 5684 5684 5684 5684 5684 5685 5685 5684
5660 5661 5662 5662 5662 5662 5663 5664 5665 5666 5667 5667 5667 5668 5668 5669 5668 5668 5669 5671 5673 5675 5676 5675 5676 5677 5677 5676 5677 5677 5677 5678 5680 5680 5680 5680 5679 5679 5679 5679 5679 5679 5679 5680 5681 5681 5681 5680 5680 5680 5680 5680 5680 5679 5678 5677 5677 5676 5676 5676 5677 5678 5677
5654 5655 5655 5656 5656 5656 5657 5658 5658 5659 5660 5660 5661 5661 5661 5662 5662 5661 5661 5661 5664 5668 5669 5667 5669 5671 5671 5671 5670 5670 5669 5670 5672 5673 5672 5672 5673 5673 5672 5672 5672 5672 5671 5672 5673 5673 5673 5672 5672 5672 5672 5673 5673 5673 5672 5671 5670 5670 5669 5669 5670 5670 5669
5648 5649 5649 5649 5650 5650 5651 5651 5651 5652 5652 5653 5653 5653 5654 5655 5656 5656 5655 5654 5657 5661 5661 5660 5661 5663 5664 5664 5664 5663 5662 5663 5665 5665 5665 5665 5666 5666 5665 5665 5664 5664 5664 5664 5665 5664 5664 5664 5663 5663 5664 5664 5665 5665 5665 5664 5663 5663 5663 5663 5663 5662 5662
5641 5642 5643 5643 5643 5644 5644 5645 5645 5645 5645 5646 5646 5647 5647 5647 5648 5649 5649 5649 5652 5655 5654 5653 5654 5656 5656 5656 5655 5655 5655 5656 5657 5657 5657 5658 5658 5658 5657 5657 5656 5656 5656 5657 5657 5656 5656 5655 5655 5655 5655 5656 5656 5656 5656 5655 5655 5655 5655 5655 5655 5654 5654
5635 5635 5635 5636 5636 5637 5637 5637 5638 5638 5638 5639 5640 5640 5640 5641 5641 5641 5642 5644 5647 5648 5646 5646 5648 5649 5649 5648 5648 5648 5649 5649 5650 5650 5650 5650 5650 5650 5649 5649 5649 5649 5649 5649 5649 5648 5648 5647 5647 5647 5647 5647 5647 5647 5646 5646 5646 5647 5646 5646 5647 5646 5646
5628 5628 5628 5629 5629 5629 5629 5630 5630 5631 5631 5632 5633 5633 5634 5634 5633 5635 5638 5640 5642 5642 5640 5639 5640 5641 5641 5641 5641 5641 5642 5641 5642 5642 5642 5642 5643 5642 5641 5641 5642 5641 5641 5641 5641 5640 5639 5639 5639 5639 5639 5638 5638 5638 5638 5637 5638 5638 5638 5638 5638 5637 5637
5621 5621 5622 5621 5622 5622 5622 5622 5622 5623 5624 5625 5626 5626 5626 5626 5627 5630 5633 5635 5635 5635 5634 5633 5633 5634 5634 5634 5634 5634 5634 5634 5634 5635 5635 5635 5635 5634 5633 5634 5634 5634 5634 5634 5633 5632 5631 5631 5631 5631 5630 5630 5629 5629 5629 5629 5629 5628 5628 5629 5628 5628 5628
5613 5614 5614 5614 5615 5615 5616 5615 5615 5616 5616 5617 5618 5619 5618 5619 5622 5625 5627 5628 5628 5628 5628 5627 5627 5628 5627 5628 5628 5627 5627 5627 5627 5627 5628 5627 5627 5627 5625 5626 5627 5627 5626 5626 5625 5624 5624 5623 5623 5623 5622 5621 5621 5621 5621 5621 5620 5620 5619 5619 5619 5619 5619
5605 5606 5606 5606 5607 5608 5609 5609 5609 5609 5609 5610 5611 5611 5611 5613 5616 5618 5619 5621 5621 5621 5620 5620 5621 5621 5621 5621 5621 5620 5620 5620 5620 5621 5621 5620 5620 5620 5618 5618 5620 5620 5619 5618 5617 5616 5616 5616 5615 5615 5614 5614 5613 5613 5612 5612 5612 5611 5611 5610 5610 5609 5609
5598 5599 5599 5599 5600 5601 5602 5602 5602 5602 5602 5603 5604 5604 5604 5607 5610 5611 5612 5614 5614 5614 5614 5615 5615 5615 5614 5614 5614 5614 5614 5614 5613 5614 5615 5614 5613 5613 5612 5611 5612 5612 5611 5611 5610 5609 5609 5608 5608 5607 5606 5606 5605 5604 5604 5603 5603 5602 5602 5601 5600 5600 5599
5592 5592 5593 5593 5593 5594 5595 5595 5595 5595 5596 5596 5597 5598 5598 5600 5603 5603 5604 5606 5607 5608 5608 5608 5608 5608 5608 5608 5608 5608 5608 5608 5607 5607 5608 5608 5607 5607 5606 5605 5605 5605 5604 5604 5603 5602 5602 5601 5600 5599 5598 5597 5597 5596 5595 5595 5594 5593 5593 5592 5591 5590 5589